Location: Overspoor
(51.4747°N, 5.6641°E)
Time: 21:17:22
(UTC+01:00)

Envisat - Visible Passes

Search period start: 16 January 2022 00:00
Search period end: 26 January 2022 00:00
Orbit: 764 x 766 km, 98.2° (Epoch: 16 January)

Date Brightness Start Highest point End Pass type
(mag) Time Alt. Az. Time Alt. Az. Time Alt. Az.
16 Jan 4.6 04:52:05 10° NNE 04:56:38 32° E 05:01:08 10° SSE visible
16 Jan 3.3 06:30:58 10° N 06:35:48 44° WNW 06:40:35 10° SW visible
16 Jan 5.8 17:52:30 10° SW 17:56:11 20° W 17:59:53 10° NW visible
17 Jan 5.6 04:16:09 10° NE 04:19:20 16° E 04:22:31 10° SE visible
17 Jan 2.8 05:53:55 10° NNE 05:59:01 84° WNW 06:04:07 10° SSW visible
17 Jan 4.4 07:34:11 10° NNW 07:37:20 17° NW 07:40:27 10° W visible
18 Jan 3.8 05:17:07 10° NNE 05:22:05 50° E 05:27:01 10° S visible
18 Jan 3.8 06:56:33 10° N 07:00:53 29° WNW 07:05:12 10° WSW visible
18 Jan 6.1 18:19:48 10° WSW 18:21:51 12° W 18:23:53 10° WNW visible
19 Jan 5.0 04:40:41 10° NE 04:44:56 26° E 04:49:10 10° SSE visible
19 Jan 3.0 06:19:18 10° N 06:24:15 53° WNW 06:29:11 10° SW visible
19 Jan 5.6 17:40:22 10° SW 17:44:28 24° W 17:48:36 10° NW visible
20 Jan 5.8 04:05:10 10° NE 04:07:35 13° E 04:09:59 10° ESE visible
20 Jan 3.0 05:42:19 10° NNE 05:47:26 81° ESE 05:52:32 10° SSW visible
20 Jan 4.3 07:22:18 10° N 07:25:53 20° NW 07:29:28 10° W visible
21 Jan 4.1 05:05:36 10° NNE 05:10:25 41° E 05:15:13 10° SSE visible
21 Jan 3.6 06:44:48 10° N 06:49:23 34° WNW 06:53:57 10° SW visible
21 Jan 5.9 18:07:08 10° WSW 18:10:05 15° W 18:13:02 10° NW visible
22 Jan 5.3 04:29:21 10° NE 04:33:13 21° E 04:37:04 10° SE visible
22 Jan 2.9 06:07:39 10° N 06:12:42 65° WNW 06:17:43 10° SSW visible
22 Jan 4.6 07:48:25 10° NNW 07:50:48 13° NW 07:53:11 10° WNW visible
23 Jan 6.0 03:54:51 10° ENE 03:55:47 10° E 03:56:44 10° E visible
23 Jan 3.3 05:30:44 10° NNE 05:35:49 66° ESE 05:40:53 10° S visible
23 Jan 4.1 07:10:28 10° N 07:14:26 23° WNW 07:18:22 10° WSW visible
24 Jan 4.5 04:54:09 10° NNE 04:58:46 33° E 05:03:20 10° SSE visible
24 Jan 3.3 06:33:05 10° N 06:37:52 41° WNW 06:42:37 10° SW visible
24 Jan 5.8 17:54:47 10° SW 17:58:20 19° W 18:01:54 10° NW visible
25 Jan 5.5 04:18:07 10° NE 04:21:29 17° E 04:24:49 10° SE visible
25 Jan 2.8 05:56:01 10° NNE 06:01:08 79° WNW 06:06:12 10° SSW visible
25 Jan 4.5 07:36:23 10° NNW 07:39:22 16° NW 07:42:22 10° W visible
